Temp_Advection
nan nan nan nan nan nan nan nan nan nan nan nan nan nan nan nan nan nan nan nan nan nan nan nan nan nan nan nan nan nan nan nan nan nan nan nan nan nan nan nan nan nan nan nan nan nan nan nan nan
nan 0 -0 0 -0 -0 -1 -2 -1 -2 -1 0 0 -0 -0 -0 -1 -1 0 0 0 -0 -0 -0 0 -0 0 0 0 0 -0 -0 -0 0 0 0 0 0 0 0 0 -0 -0 -0 -0 -0 -0 -0 nan
nan 0 -0 0 -0 -1 -1 -2 -1 -1 0 -0 0 0 -0 -1 -1 -0 0 -0 0 0 -0 -0 0 -0 0 0 0 0 0 0 0 0 0 0 0 0 0 0 0 0 -0 0 0 0 -0 -0 nan
nan 0 0 0 -1 -1 -3 -1 -0 -1 -0 0 -0 -0 0 -1 -1 -0 1 0 -0 0 -0 -0 -0 -0 -0 -0 -0 0 0 0 0 0 0 0 0 0 0 0 0 0 0 0 0 0 0 0 nan
nan 0 0 -0 -1 -1 -2 -2 -1 -0 -0 0 0 0 -0 0 -0 -0 -0 1 0 -0 -0 -0 -0 -0 -0 -0 -0 0 0 0 0 -0 0 0 0 0 0 0 0 0 0 0 0 0 0 0 nan
nan 0 0 -1 -2 -1 -2 -2 -0 -1 -1 0 -0 -0 -0 0 -0 -1 -0 0 0 0 -0 -0 -0 -0 -0 -0 -0 -0 0 0 0 0 0 0 0 0 0 0 0 0 0 0 0 0 0 0 nan
nan 0 -0 -1 -1 -1 -2 -2 -0 -0 0 -0 -0 0 0 0 0 -0 -0 0 0 0 0 0 -0 0 -0 -0 -0 -0 0 0 0 0 0 0 0 0 0 0 0 0 0 0 0 0 0 0 nan
nan 0 -0 -1 -0 -2 -2 -2 -1 0 -0 -0 0 0 0 0 0 0 0 0 0 0 0 0 0 0 0 -0 0 0 0 0 0 0 0 0 0 0 0 0 0 0 0 0 0 0 0 0 nan
nan 0 -1 -1 -1 -2 -1 -1 -2 -1 -0 0 0 -0 -1 0 0 0 0 0 1 0 0 0 0 0 0 0 0 0 0 0 0 0 0 0 0 0 0 0 0 0 0 0 0 0 0 0 nan
nan -0 -3 -0 -1 -1 -1 -1 -1 -0 0 0 0 0 -0 -0 -0 0 0 -0 -0 -0 0 0 0 0 0 0 0 0 0 0 0 0 0 0 0 0 0 0 0 0 0 0 0 0 0 0 nan
nan -1 -2 -1 -1 -1 -0 -1 -1 0 -0 -0 0 -1 -0 -0 -1 -0 -0 -0 0 0 0 0 0 0 0 0 0 0 0 0 0 0 0 0 0 0 0 0 0 0 0 0 0 0 0 0 nan
nan -2 -1 -1 -1 -0 -1 -1 -0 -1 -1 -0 0 -0 -0 0 0 -0 -0 -0 0 -0 -0 0 0 0 0 1 0 0 0 0 0 0 0 0 0 0 0 0 0 0 0 0 -0 0 0 0 nan
nan -2 -1 -1 -1 -1 -1 -0 -0 -1 -2 -0 0 -0 0 0 0 0 -0 -0 -0 -0 -0 0 0 0 0 1 0 0 0 0 0 0 0 0 0 0 0 0 0 0 0 0 0 0 0 0 nan
nan -1 -1 -1 -1 -0 -0 -0 -0 -1 -1 -0 0 0 0 0 0 0 -0 0 -0 -0 -0 0 -0 0 1 0 -0 1 1 1 0 0 0 0 0 0 0 0 0 0 0 0 0 0 0 0 nan
nan 0 -1 -1 -1 -1 0 0 -1 -1 -0 0 0 0 0 0 0 0 -0 -0 -0 0 0 0 0 0 0 -0 1 1 1 0 -0 0 0 0 1 0 0 0 0 0 0 0 0 0 0 0 nan
nan -0 -1 -2 -1 -0 1 -0 -2 -1 0 0 0 -0 -0 -0 0 0 0 -0 -0 0 1 0 0 0 0 0 1 1 0 0 0 0 -0 1 1 0 0 0 0 0 0 0 0 0 0 0 nan
nan -0 -1 -2 -1 -0 0 -1 -1 -1 1 1 -0 -0 -0 0 -0 -0 0 -0 -0 -0 1 1 0 0 0 1 1 1 1 0 0 0 0 1 -0 -0 0 0 0 0 0 1 1 1 0 0 nan
nan -1 -1 -1 -1 -0 0 -0 -1 0 1 0 -0 -0 0 0 -1 -0 -0 -0 -0 -0 -0 1 1 0 1 2 2 1 1 0 1 0 -0 -0 0 0 0 0 0 0 1 0 0 0 0 -0 nan
nan -1 -1 -1 -1 -0 -0 -0 -0 -0 -0 0 -0 -0 -0 -1 -0 0 -0 -0 -0 -0 -0 1 1 1 2 1 1 -0 0 1 0 0 0 -0 0 0 0 1 0 1 0 -0 0 0 0 0 nan
nan -0 -1 -2 -2 -0 1 -0 -2 -1 -0 -0 -1 -1 -0 -0 -0 -0 0 -0 0 0 1 1 1 1 1 0 0 1 2 1 0 0 -0 -0 0 0 0 1 1 1 0 0 0 0 0 1 nan
nan -1 -1 -1 -2 0 -1 -1 -2 -1 -0 0 -1 -0 -0 1 1 1 1 0 0 0 0 1 1 1 1 1 1 1 0 -1 0 -0 -1 0 1 1 1 1 1 0 0 -0 0 0 0 1 nan
nan -1 -1 -0 1 0 0 -1 -2 -0 -0 -0 -0 0 0 1 1 0 0 -0 -0 -0 -0 -0 1 1 1 1 -0 -1 -1 0 1 0 0 0 1 1 1 1 1 0 -0 -0 -0 -0 1 1 nan
nan -1 -0 1 -1 -0 -0 -0 -0 -1 -1 -0 1 0 -1 -1 -1 -0 -0 -0 0 -0 -0 0 1 1 1 1 -0 0 1 0 1 2 0 0 1 1 1 0 1 0 -0 0 0 0 1 0 nan
nan 1 -0 -0 -0 -0 -1 -0 -0 -0 -0 -0 -1 -1 -1 -0 -0 0 -0 -0 -0 -0 -0 -0 0 0 0 -0 -0 -0 1 1 2 1 -0 0 1 1 -0 0 1 0 0 0 0 0 1 0 nan
nan -0 -0 -0 0 -1 -0 -0 -1 -0 0 -1 -1 -1 -1 -1 -1 -1 -2 -2 -2 -1 -0 -0 -1 0 0 -1 -1 1 2 1 1 1 0 0 1 -0 -0 1 1 0 0 0 1 0 1 -0 nan
nan -1 -0 -0 -0 -0 -0 0 -1 0 -2 -1 -1 -2 -2 -2 -2 -2 -3 -3 -3 -2 -2 -1 -2 -1 -0 -0 -2 1 2 1 1 1 0 0 0 1 0 1 1 0 0 0 0 0 0 0 nan
nan -0 -0 0 -0 -0 -0 -0 -0 -1 0 -1 -2 -3 -2 -2 -2 -3 -3 -3 -2 -2 -2 -2 -2 -1 -0 -0 -0 1 1 1 1 1 1 0 0 1 0 1 1 0 0 0 0 0 0 0 nan
nan -0 -0 -0 -0 -0 0 -0 0 -1 -1 -1 -2 -2 -3 -3 -2 -2 -2 -2 -2 -1 -1 -1 -2 -2 -1 0 0 0 1 1 1 1 0 1 0 0 1 1 1 0 0 0 0 0 0 0 nan
nan 0 -0 -0 0 -0 0 -0 -1 -0 -0 -1 -1 -3 -2 -2 -1 -1 -1 -2 -2 -1 -1 -1 -1 -1 -1 1 1 1 1 2 1 1 1 1 1 1 1 1 1 0 -0 0 0 0 -0 0 nan
nan nan nan nan nan nan nan nan nan nan nan nan nan nan nan nan nan nan nan nan nan nan nan nan nan nan nan nan nan nan nan nan nan nan nan nan nan nan nan nan nan nan nan nan nan nan nan nan nan
Wind_Speed
7 5 2 4 2 3 5 9 17 20 8 2 12 11 5 4 4 5 18 15 13 14 17 15 12 11 10 11 12 13 14 13 12 11 11 11 11 10 8 10 10 9 9 9 9 8 9 10 9
7 8 1 4 3 3 6 18 20 18 9 9 11 11 9 2 19 25 18 13 12 17 18 15 10 9 10 11 12 12 12 12 11 11 11 11 11 10 9 9 10 9 9 8 8 7 8 9 8
9 11 3 4 4 10 6 15 8 16 4 5 3 10 4 8 21 20 16 17 20 19 15 12 9 9 11 12 12 12 12 11 11 11 11 11 11 11 10 9 10 9 8 7 6 6 8 8 8
10 8 6 2 12 9 20 18 12 9 2 5 6 6 9 15 22 22 19 17 19 17 13 11 10 10 10 11 12 12 11 11 11 11 11 11 12 12 11 11 11 9 8 7 8 8 8 7 7
11 4 3 5 11 12 19 29 23 16 10 9 6 1 11 13 17 23 22 17 13 17 13 12 10 9 9 10 10 11 11 11 10 10 11 12 13 13 12 12 12 11 10 9 9 8 8 6 6
4 5 2 13 19 16 17 33 26 18 18 2 4 3 7 23 27 30 26 20 13 15 15 14 12 11 10 9 10 10 10 10 10 10 11 12 13 13 13 13 13 12 11 11 9 9 7 6 6
8 2 7 9 13 16 20 31 18 18 14 5 6 2 8 23 26 30 29 25 19 17 17 17 15 13 11 10 10 10 11 11 11 11 11 12 13 14 15 15 15 14 13 12 11 10 9 8 8
18 3 13 15 13 22 24 30 27 21 13 17 10 5 3 26 28 31 29 26 23 20 19 19 18 16 13 11 11 12 12 12 12 12 13 13 13 15 16 17 17 16 14 13 13 13 8 10 12
18 7 17 25 17 17 24 17 32 24 7 6 4 9 20 28 27 30 28 25 25 23 21 21 20 19 16 13 13 13 14 14 14 14 14 14 15 16 16 18 18 18 16 15 16 16 12 11 14
9 7 33 3 15 17 24 25 27 7 6 6 4 17 21 25 22 24 29 28 26 25 25 22 22 21 19 17 16 15 15 16 16 16 16 16 16 16 17 19 19 21 18 19 17 16 15 14 17
16 21 23 18 29 34 27 27 30 6 5 10 17 22 18 15 20 24 28 28 26 25 24 24 23 22 21 20 18 17 17 17 17 17 17 17 18 18 19 20 21 25 21 23 21 18 18 16 17
17 33 31 28 31 30 19 25 16 13 14 13 12 20 18 22 22 24 24 31 30 28 24 23 23 23 22 20 18 17 16 17 17 17 18 19 20 21 21 22 23 25 26 26 25 22 19 19 20
23 28 27 33 35 42 42 31 23 25 27 17 16 13 19 11 26 24 24 25 34 34 29 25 24 24 25 20 19 19 16 16 13 14 15 16 19 21 22 23 22 24 25 27 27 25 23 22 22
17 24 27 30 32 36 27 28 22 31 27 26 22 23 18 15 15 19 23 25 27 36 35 32 27 25 25 24 23 22 18 17 17 16 15 17 19 21 21 22 22 22 24 21 24 27 25 23 23
29 21 20 22 28 27 30 21 30 25 19 23 25 27 28 24 23 23 24 23 22 26 35 40 34 30 27 25 24 24 23 23 22 19 19 17 19 21 21 23 24 24 24 21 23 23 23 22 22
17 17 19 29 25 23 20 28 23 26 26 26 28 29 29 31 32 33 30 26 28 29 31 43 42 37 32 28 27 28 28 26 23 22 22 19 18 21 22 23 23 24 23 22 23 24 24 22 24
10 17 20 24 12 15 15 26 12 27 27 25 30 32 36 37 34 35 34 35 31 32 36 37 47 43 37 32 30 31 30 27 24 20 19 18 20 21 24 24 24 25 24 23 24 25 25 24 24
13 14 15 20 11 19 20 29 11 19 25 31 27 30 34 41 42 40 39 34 32 33 32 36 44 46 41 36 32 31 30 30 26 22 20 18 19 21 23 23 24 23 23 22 25 27 26 26 24
17 16 18 16 19 20 16 26 19 16 27 22 26 30 35 31 29 38 38 35 36 33 34 32 36 44 46 40 36 33 32 30 29 27 23 19 17 17 22 24 24 24 23 23 25 26 26 26 23
19 20 22 24 21 16 15 18 15 22 21 29 25 29 22 18 15 10 7 21 21 27 31 24 30 38 46 42 36 33 33 32 31 31 27 23 19 17 20 24 24 24 24 26 25 27 25 24 22
20 21 21 20 21 19 12 18 18 13 21 16 25 25 25 27 25 24 18 16 17 19 27 31 28 36 45 40 35 33 29 29 33 37 35 29 22 20 21 23 24 26 27 27 26 25 26 25 26
19 18 22 22 18 7 4 6 14 15 17 8 12 15 7 8 10 10 7 6 8 3 6 17 29 32 40 38 33 33 35 36 43 44 40 33 29 26 24 24 24 25 25 23 25 24 23 22 25
19 20 19 9 11 4 5 7 7 8 10 16 18 18 22 25 21 18 15 11 7 1 5 6 16 35 41 39 33 32 33 33 41 42 40 36 35 30 28 27 26 26 22 21 22 22 21 22 26
20 11 5 5 2 6 13 6 6 4 7 9 18 25 28 24 20 16 12 8 9 8 8 9 14 8 36 38 34 34 35 31 41 40 37 35 32 35 34 30 28 27 22 20 22 20 20 21 27
12 8 3 1 2 5 6 5 10 10 16 19 19 25 28 26 23 24 21 19 18 21 19 16 17 21 19 41 40 40 38 32 37 40 39 35 35 34 37 32 30 27 23 20 23 20 21 24 23
6 9 5 5 4 2 4 8 10 8 25 28 29 30 32 32 26 26 26 23 22 22 21 22 23 24 24 34 44 42 41 36 37 38 35 32 33 34 32 29 28 23 23 21 22 22 20 22 22
6 9 7 3 1 2 5 3 3 8 20 19 23 31 31 30 29 27 26 26 23 22 20 20 22 25 25 22 41 44 41 38 39 36 33 29 28 29 31 28 27 25 24 23 23 26 24 23 23
7 6 5 3 2 4 6 6 2 11 15 19 22 25 30 29 27 26 28 28 25 24 24 18 15 19 27 23 35 43 41 37 36 35 33 30 27 25 24 27 28 25 23 24 22 26 27 28 25
5 4 5 2 2 2 2 3 7 7 12 17 19 31 26 25 27 28 29 29 27 25 23 17 12 6 14 25 35 39 39 36 34 34 32 31 29 26 23 23 26 26 25 23 22 25 28 31 30
4 2 6 2 3 2 2 4 14 16 19 23 26 23 23 26 34 35 32 32 31 30 25 19 13 9 4 3 26 28 30 33 34 31 31 31 28 25 24 24 27 26 24 24 24 25 25 28 27
Wind_Direction
231 212 259 300 33 99 236 251 239 276 306 105 65 71 125 124 91 165 134 156 156 150 145 140 140 143 154 158 159 159 159 160 164 165 167 166 170 167 155 156 154 146 144 150 156 163 169 178 177
209 180 311 279 141 247 259 247 253 277 226 98 87 53 42 86 115 132 137 153 145 144 136 137 145 155 162 162 161 162 160 163 167 168 170 174 177 171 167 167 161 150 150 150 160 168 164 167 169
192 182 177 165 203 230 245 256 276 304 47 77 78 96 50 106 129 143 157 147 146 140 138 138 147 154 161 164 163 163 162 165 167 171 175 179 181 178 174 176 173 161 159 163 166 163 151 156 156
190 172 256 212 251 253 233 257 261 292 207 119 136 110 99 133 144 149 155 145 148 143 134 136 141 147 157 164 167 167 165 166 168 173 178 181 181 183 184 183 181 171 166 169 169 166 151 151 155
188 220 206 230 248 257 267 266 270 290 283 184 179 346 112 135 141 145 151 154 162 142 143 144 147 151 159 168 173 173 172 173 176 177 181 182 187 187 192 189 185 180 180 175 175 164 156 156 163
234 242 223 229 245 258 260 268 270 260 260 170 101 81 154 151 147 148 155 167 180 157 155 159 162 165 169 176 179 181 181 184 186 187 187 189 194 191 195 195 192 189 187 181 184 170 167 162 164
208 228 244 251 252 266 266 275 269 268 220 220 165 157 129 156 160 159 168 172 188 183 171 172 176 178 176 183 191 191 192 194 195 196 193 193 201 198 199 198 197 200 193 191 190 184 178 177 168
226 265 259 250 244 254 265 273 279 304 197 209 196 196 105 164 162 165 170 177 191 197 183 185 186 190 184 189 199 199 200 202 202 202 202 203 204 205 204 203 201 204 200 203 201 200 207 229 209
238 237 248 242 242 246 267 280 284 292 210 216 203 180 121 147 157 166 172 183 195 203 200 193 195 196 193 194 205 206 207 207 207 208 213 213 211 212 207 208 209 207 207 210 211 213 238 238 215
198 221 238 205 235 249 261 270 271 256 232 243 234 145 149 147 163 175 179 187 201 209 208 204 200 203 202 202 208 211 213 214 214 214 217 223 221 218 215 211 215 211 212 215 217 231 238 233 218
235 238 243 242 239 260 268 274 278 233 245 228 228 165 168 177 174 189 195 204 216 220 218 215 209 208 209 210 208 214 215 217 218 219 219 222 225 219 219 217 218 215 218 219 222 233 231 232 219
242 241 243 256 262 270 264 271 283 270 220 229 217 203 198 212 221 197 205 208 208 220 229 228 222 220 215 214 208 212 215 218 222 224 222 221 223 226 222 221 222 225 229 224 231 235 235 232 223
255 255 254 252 245 252 266 266 267 272 274 243 253 275 235 218 216 214 215 220 217 217 221 227 224 225 228 217 220 213 212 211 216 217 218 214 221 224 225 227 226 225 226 228 236 238 239 235 230
251 269 263 258 248 254 254 260 261 261 269 257 255 265 261 257 225 223 217 215 218 221 221 221 220 227 226 222 224 212 223 224 218 219 223 225 223 225 226 227 231 232 233 230 235 239 240 239 234
249 259 266 258 255 249 254 259 244 248 259 245 249 257 260 258 254 246 245 247 228 234 226 216 216 223 224 223 227 225 214 223 222 226 227 229 216 220 222 224 228 232 232 234 231 235 234 236 235
287 270 257 247 247 251 246 254 253 249 249 250 256 259 257 255 257 253 250 251 248 242 240 219 212 218 220 225 223 225 224 221 220 220 224 230 215 215 218 220 222 225 224 228 232 231 230 237 234
248 249 251 263 252 238 240 259 244 238 238 244 242 245 245 244 244 249 254 247 245 243 247 227 213 215 218 220 218 223 226 230 226 225 220 229 211 216 221 219 218 221 224 230 229 229 239 238 234
250 255 255 262 228 228 237 255 237 215 230 240 239 245 241 237 238 233 240 242 244 244 248 242 217 217 219 217 216 215 219 229 229 229 226 227 226 216 221 222 219 224 225 227 229 232 237 239 246
262 272 261 254 243 251 245 244 238 223 226 240 235 243 249 235 239 229 234 236 235 240 246 249 218 218 213 209 209 210 214 219 228 233 233 229 224 219 219 222 222 225 223 224 226 229 234 236 237
251 259 270 283 282 262 266 296 292 244 223 228 228 233 244 202 207 213 200 219 221 233 240 245 230 221 213 214 213 215 214 211 227 234 235 232 224 216 216 222 221 224 227 228 232 229 230 232 231
247 235 253 255 278 288 22 271 245 265 241 215 213 226 242 227 224 233 242 256 257 251 247 248 227 224 215 212 210 207 203 215 218 230 237 231 227 220 216 220 223 222 221 230 238 235 234 230 228
247 249 243 254 257 268 225 299 298 238 250 270 253 233 246 152 130 114 107 59 48 29 11 252 224 216 213 213 214 214 216 219 225 226 228 230 230 221 221 225 228 227 231 230 233 232 235 227 225
241 246 257 258 54 290 249 269 258 281 266 240 227 118 91 85 81 65 59 53 47 39 315 260 218 213 206 208 218 229 224 231 232 232 229 231 224 219 222 228 227 232 226 224 228 228 228 218 220
245 220 62 64 31 248 227 201 287 274 234 98 85 84 77 70 60 48 31 4 331 311 308 286 263 240 226 220 216 236 234 234 228 233 233 232 221 213 220 226 229 229 226 220 224 227 220 206 216
248 127 58 87 192 230 199 223 245 321 83 94 92 80 68 59 48 32 15 352 324 302 291 281 278 253 230 231 227 236 234 232 231 231 235 232 226 215 217 223 228 221 229 223 222 220 214 204 208
214 134 159 181 198 184 240 218 232 201 85 76 78 73 60 48 34 23 16 354 332 318 303 290 286 264 245 229 231 232 230 222 225 233 236 236 227 223 218 222 227 228 231 220 219 214 205 203 204
193 159 155 87 191 319 204 27 318 18 118 93 74 65 53 45 32 15 6 358 348 338 334 325 301 275 256 247 231 225 227 221 220 227 237 235 231 226 224 223 221 223 222 223 214 214 217 210 201
145 143 146 76 235 239 193 125 216 30 38 77 63 57 47 39 29 15 5 2 356 348 343 335 317 279 256 249 231 224 224 220 227 220 232 237 230 225 219 218 218 223 227 220 218 221 224 222 214
31 114 77 146 232 351 130 91 13 52 64 64 72 56 44 32 25 15 11 8 3 358 351 351 338 311 255 245 229 214 219 221 224 222 228 229 229 220 217 219 216 216 223 222 224 230 225 225 228
63 98 179 195 141 195 299 65 37 63 47 50 50 46 40 34 32 24 19 14 11 7 359 358 3 4 46 176 206 218 221 219 219 216 215 221 218 215 215 215 215 218 219 221 221 223 223 224 225
Height
1507 1509 1511 1512 1523 1518 1520 1502 1479 1471 1469 1460 1455 1457 1464 1466 1471 1491 1481 1484 1486 1488 1491 1493 1496 1498 1501 1503 1505 1507 1510 1512 1515 1517 1520 1522 1524 1526 1529 1531 1532 1534 1535 1537 1538 1540 1541 1542 1543
1505 1508 1510 1511 1524 1530 1517 1483 1479 1471 1465 1458 1454 1456 1460 1472 1469 1476 1480 1483 1486 1488 1490 1493 1495 1498 1501 1502 1504 1507 1509 1512 1514 1516 1519 1521 1523 1526 1528 1530 1532 1533 1536 1537 1538 1540 1542 1543 1545
1503 1506 1508 1511 1516 1513 1510 1475 1475 1472 1464 1458 1457 1456 1462 1471 1473 1475 1479 1482 1485 1489 1491 1493 1495 1497 1500 1503 1504 1506 1508 1511 1513 1516 1518 1521 1523 1525 1527 1529 1532 1533 1536 1537 1539 1541 1543 1544 1546
1502 1506 1508 1510 1508 1495 1486 1466 1469 1474 1466 1459 1458 1460 1464 1469 1470 1473 1478 1482 1486 1488 1490 1492 1495 1497 1500 1502 1504 1506 1508 1510 1513 1515 1517 1520 1523 1525 1527 1529 1532 1534 1535 1537 1538 1542 1543 1545 1547
1502 1500 1508 1508 1499 1486 1477 1469 1473 1470 1466 1459 1459 1461 1464 1467 1468 1472 1476 1480 1484 1487 1490 1492 1494 1496 1499 1502 1504 1507 1508 1510 1512 1514 1517 1520 1522 1524 1527 1529 1530 1533 1535 1537 1539 1541 1543 1545 1547
1502 1497 1506 1501 1490 1480 1472 1463 1465 1464 1461 1460 1460 1461 1466 1465 1465 1471 1474 1478 1483 1486 1488 1491 1493 1496 1498 1501 1503 1506 1508 1510 1512 1514 1516 1518 1520 1523 1526 1528 1530 1532 1534 1536 1539 1541 1543 1546 1547
1493 1497 1497 1490 1484 1476 1467 1462 1461 1460 1457 1457 1457 1461 1464 1465 1466 1469 1470 1475 1481 1485 1487 1489 1492 1494 1495 1499 1502 1504 1506 1508 1510 1513 1515 1516 1519 1522 1524 1527 1529 1532 1533 1535 1537 1540 1542 1544 1545
1490 1493 1489 1481 1483 1472 1461 1459 1459 1456 1448 1452 1454 1459 1462 1465 1466 1469 1471 1474 1479 1484 1486 1487 1489 1493 1493 1497 1500 1502 1504 1507 1509 1511 1513 1515 1517 1520 1523 1526 1528 1530 1532 1535 1536 1538 1540 1543 1545
1488 1490 1479 1469 1478 1465 1459 1458 1454 1456 1450 1451 1454 1456 1459 1463 1466 1470 1472 1474 1478 1481 1484 1485 1487 1490 1491 1494 1498 1500 1502 1504 1506 1508 1510 1512 1515 1517 1520 1524 1526 1529 1531 1533 1535 1537 1538 1541 1544
1480 1482 1449 1462 1464 1464 1460 1454 1452 1454 1451 1450 1452 1455 1458 1461 1466 1468 1470 1472 1475 1478 1480 1483 1484 1487 1489 1490 1494 1497 1499 1501 1503 1505 1507 1509 1512 1515 1518 1521 1524 1526 1529 1531 1532 1535 1536 1538 1541
1475 1466 1446 1456 1461 1461 1457 1452 1450 1451 1451 1448 1449 1451 1454 1458 1462 1466 1466 1468 1472 1475 1478 1479 1481 1483 1485 1487 1490 1493 1496 1498 1500 1502 1504 1506 1509 1511 1514 1517 1520 1523 1525 1528 1529 1531 1533 1535 1539
1473 1451 1449 1454 1458 1457 1452 1451 1444 1447 1444 1445 1446 1449 1450 1452 1455 1460 1464 1464 1467 1470 1473 1476 1477 1479 1481 1484 1486 1490 1493 1495 1497 1499 1501 1503 1505 1508 1511 1513 1517 1520 1522 1524 1526 1527 1530 1533 1536
1461 1447 1453 1448 1453 1451 1449 1444 1441 1439 1442 1439 1440 1445 1448 1449 1452 1455 1459 1461 1462 1464 1466 1470 1473 1475 1477 1479 1482 1485 1488 1491 1493 1495 1497 1500 1502 1504 1507 1509 1514 1516 1519 1520 1522 1524 1526 1529 1532
1455 1448 1448 1444 1443 1442 1442 1435 1439 1430 1438 1435 1436 1437 1443 1446 1450 1454 1455 1456 1457 1458 1461 1463 1466 1469 1472 1475 1477 1481 1483 1486 1488 1491 1493 1495 1498 1501 1503 1506 1509 1512 1515 1517 1518 1520 1523 1525 1528
1446 1446 1441 1437 1433 1430 1437 1433 1423 1430 1433 1431 1432 1433 1435 1439 1444 1447 1449 1452 1454 1453 1454 1456 1461 1464 1466 1469 1472 1475 1480 1481 1484 1486 1489 1491 1494 1497 1500 1502 1505 1508 1511 1514 1515 1517 1520 1522 1524
1444 1442 1438 1417 1422 1425 1433 1428 1419 1425 1427 1427 1429 1431 1432 1432 1436 1440 1443 1446 1449 1451 1449 1449 1454 1457 1461 1463 1467 1470 1475 1478 1481 1484 1485 1487 1489 1492 1495 1497 1501 1503 1506 1510 1512 1513 1516 1518 1520
1438 1438 1431 1420 1423 1423 1424 1415 1416 1421 1421 1421 1423 1425 1427 1429 1430 1432 1435 1439 1442 1445 1446 1444 1446 1450 1455 1459 1461 1465 1470 1474 1477 1480 1482 1482 1484 1488 1491 1493 1495 1498 1502 1504 1507 1509 1512 1514 1516
1442 1439 1432 1424 1417 1415 1415 1406 1413 1411 1415 1414 1417 1419 1420 1420 1422 1426 1430 1433 1436 1439 1440 1439 1441 1444 1449 1453 1457 1461 1466 1469 1472 1474 1477 1478 1480 1483 1486 1489 1492 1494 1496 1499 1503 1505 1507 1509 1511
1437 1433 1427 1416 1413 1412 1408 1401 1405 1405 1405 1407 1407 1410 1411 1412 1415 1418 1421 1425 1429 1433 1434 1433 1437 1440 1444 1447 1451 1454 1457 1462 1466 1468 1473 1474 1476 1479 1482 1485 1488 1489 1491 1494 1498 1501 1503 1505 1507
1433 1434 1429 1419 1408 1405 1404 1408 1403 1396 1396 1397 1401 1403 1405 1406 1410 1414 1416 1420 1424 1427 1429 1428 1431 1434 1438 1442 1445 1448 1451 1458 1463 1465 1468 1469 1472 1475 1477 1479 1483 1485 1487 1490 1492 1494 1497 1500 1502
1426 1428 1424 1422 1409 1402 1417 1412 1400 1390 1386 1390 1392 1395 1399 1401 1405 1409 1414 1417 1420 1422 1424 1422 1425 1429 1433 1438 1442 1446 1450 1457 1459 1460 1462 1464 1467 1470 1472 1475 1478 1480 1482 1484 1486 1489 1492 1493 1496
1423 1416 1413 1412 1412 1423 1424 1427 1399 1393 1385 1380 1383 1390 1396 1399 1403 1405 1406 1410 1413 1417 1419 1419 1416 1421 1427 1432 1435 1437 1439 1444 1449 1453 1457 1460 1463 1464 1467 1469 1473 1476 1477 1479 1481 1484 1486 1488 1490
1412 1408 1408 1406 1426 1431 1423 1431 1402 1388 1384 1379 1379 1389 1395 1399 1400 1403 1405 1408 1409 1411 1412 1414 1420 1419 1418 1423 1427 1429 1432 1439 1442 1448 1454 1457 1460 1460 1461 1464 1467 1470 1471 1474 1476 1479 1480 1483 1485
1402 1407 1413 1413 1423 1442 1411 1422 1408 1392 1378 1373 1382 1390 1395 1398 1400 1403 1405 1406 1407 1410 1411 1412 1412 1417 1420 1420 1420 1422 1425 1431 1435 1441 1446 1450 1453 1456 1457 1459 1462 1464 1466 1469 1472 1474 1476 1479 1482
1396 1407 1432 1434 1449 1432 1403 1414 1405 1387 1377 1381 1389 1396 1400 1401 1402 1404 1404 1405 1406 1407 1408 1409 1409 1408 1412 1416 1416 1417 1419 1423 1429 1434 1439 1443 1446 1448 1450 1452 1456 1459 1460 1464 1468 1470 1473 1476 1479
1397 1403 1429 1423 1428 1417 1401 1407 1396 1387 1381 1396 1398 1401 1403 1404 1407 1408 1407 1408 1408 1406 1405 1404 1403 1401 1403 1407 1410 1413 1415 1418 1423 1427 1432 1437 1441 1444 1447 1448 1452 1455 1456 1459 1463 1466 1470 1473 1476
1393 1401 1403 1415 1407 1414 1399 1399 1390 1392 1385 1399 1406 1405 1409 1413 1415 1414 1415 1415 1410 1407 1404 1401 1397 1395 1396 1396 1402 1406 1409 1414 1417 1422 1427 1431 1436 1440 1443 1445 1449 1451 1452 1454 1459 1463 1467 1471 1474
1384 1390 1410 1420 1420 1414 1391 1407 1406 1416 1406 1410 1410 1418 1420 1422 1424 1423 1421 1415 1411 1407 1402 1399 1396 1392 1390 1391 1395 1400 1403 1409 1415 1418 1422 1427 1432 1436 1438 1441 1445 1447 1448 1451 1455 1459 1463 1467 1470
1399 1400 1410 1418 1418 1412 1402 1411 1422 1424 1418 1413 1417 1421 1431 1431 1429 1424 1417 1413 1409 1405 1401 1396 1392 1388 1385 1387 1389 1394 1398 1404 1410 1415 1418 1422 1426 1430 1435 1437 1440 1443 1445 1447 1450 1454 1458 1462 1466
1404 1403 1406 1417 1414 1414 1409 1429 1434 1431 1423 1426 1425 1434 1436 1432 1427 1423 1419 1414 1409 1405 1402 1396 1393 1388 1386 1388 1390 1394 1398 1402 1405 1410 1412 1417 1422 1427 1432 1435 1437 1439 1440 1443 1446 1449 1454 1458 1460